Location: Newark
(21.8258°S, 114.1586°E)
Time: 06:29:55
(UTC+00:00)

Hubble Space Telescope - Pass Details

Date: 18 December 2019
Orbit: 536 x 540 km, 28.5° (Epoch: 26 January)

Event Time Altitude Azimuth Distance (km) Brightness Sun altitude
Rises 13:28:05 0° 254° (WSW) 2,684 5.2 -28.4°
Reaches altitude 10° 13:30:23 10° 258° (WSW) 1,790 4.1 -28.8°
Enters shadow 13:32:11 24° 267° (W) 1,132 2.8 -29.1°
